Location: Home
(42.5358°N, 72.7383°W)
Time: 00:00:26
(UTC-05:00)

METEOR M2 - Visible Passes

Search period start: 28 January 2022 00:00
Search period end: 07 February 2022 00:00
Orbit: 818 x 827 km, 98.4° (Epoch: 27 January)

Date Brightness Start Highest point End Pass type
(mag) Time Alt. Az. Time Alt. Az. Time Alt. Az.
28 Jan ? 06:27:37 10° NNE 06:32:29 33° E 06:37:18 10° SSE visible
28 Jan ? 17:50:37 10° SSE 17:55:50 57° ENE 18:01:05 10° N visible
28 Jan ? 19:32:38 10° SW 19:36:21 19° W 19:40:06 10° NW visible
29 Jan ? 06:08:13 10° NE 06:12:24 23° E 06:16:33 10° SE visible
29 Jan ? 17:31:07 10° SE 17:36:01 38° ENE 17:40:56 10° N visible
29 Jan ? 19:11:41 10° SSW 19:16:14 28° W 19:20:50 10° NW visible
30 Jan ? 05:49:16 10° NE 05:52:15 15° E 05:55:13 10° ESE visible
30 Jan ? 18:51:09 10° S 18:56:11 42° W 19:01:16 10° NNW visible
31 Jan ? 18:30:54 10° S 18:36:11 64° WSW 18:41:32 10° NNW visible
01 Feb ? 18:10:54 10° SSE 18:16:15 86° ENE 18:21:39 10° NNW visible
01 Feb ? 19:55:09 10° WSW 19:57:05 12° W 19:59:04 10° WNW visible
02 Feb ? 06:28:09 10° NNE 06:33:03 34° E 06:37:54 10° SSE visible
02 Feb ? 17:51:09 10° SSE 17:56:22 58° ENE 18:01:38 10° N visible
02 Feb ? 19:33:15 10° SW 19:36:55 19° W 19:40:36 10° NW visible
03 Feb ? 06:08:44 10° NE 06:12:58 23° E 06:17:10 10° SE visible
03 Feb ? 17:31:38 10° SE 17:36:33 39° ENE 17:41:30 10° N visible
03 Feb ? 19:12:16 10° SSW 19:16:48 28° W 19:21:21 10° NW visible
04 Feb ? 05:49:44 10° NE 05:52:49 15° E 05:55:53 10° SE visible
04 Feb ? 18:51:43 10° SSW 18:56:44 41° W 19:01:49 10° NNW visible
05 Feb ? 18:31:27 10° S 18:36:44 63° W 18:42:04 10° NNW visible
06 Feb ? 18:11:27 10° SSE 18:16:48 88° ENE 18:22:12 10° NNW visible
06 Feb ? 19:55:52 10° WSW 19:57:40 12° W 19:59:28 10° WNW visible
